Weather in Shevchenkove

Ukraine / Dnipropetrovsk Region     48°10′50″N   36°13′03″E
temp.,
°C
wind,
m/s
gust,
m/s
humid.,
%
clouds,
%
prec.,
mm/h
press.,
hPa
HPBL,
m
27 november, sat
sat2723:00+2se6168898 0.0 1015349
02:00+4sse71786100 0.0 1012456
05:00+6sse91882100 0.0 1010737
08:00+5sse91989100 1.8 1008674
11:00+8sse101880100 1.7 1007746
14:00+9sse71387100 1.7 1006532
17:00+10s4119198 0.0 1006294
20:00+8s51294100 0.0 1007282
28 november, sun
sun2823:00+8s5129514 0.0 1007261
02:00+8ssw4109681 0.0 1007311
05:00+6ssw359714 0.0 100886
08:00+7ssw34960 0.0 100985
11:00+12s46740 0.0 1008381
14:00+13s3565100 0.0 1008376
17:00+10sse4784100 0.0 1008126
20:00+10se51196100 1.1 1007322
29 november, mon
mon2923:00+11sse81695100 3.6 1005791
02:00+11s71492100 3.9 1003708
05:00+11ssw81490100 0.1 1003643
08:00+11s71389100 0.1 1003705
11:00+11s81790100 1.6 1001848
14:00+13s91877100 3.1 998976
17:00+13s10218082 1.0 9951129
20:00+14s121982100 1.3 9931091
30 november, tue
tue3023:00+13sw111879100 0.5 9931255
02:00+9wsw61081100 0.6 996581
05:00+7wsw61077100 0.0 999713
08:00+5w61171100 0.0 1002639
11:00+6wsw685442 0.0 1003704
14:00+7wsw574693 0.0 1002758
17:00+5wnw2358100 0.0 100053
20:00+3nnw4764100 0.0 1000521
1 december, wed
wed123:00+3nnw4965100 0.0 1000800
02:00+2nw71269100 0.0 1001788
05:000wnw61273100 0.0 1004696
08:00−1w6107661 0.0 1007687
11:00+1w795412 0.0 1008985
14:00+2w6115398 0.0 10081206
17:00+1wsw49625 0.0 1009279
20:00−1ssw48725 0.0 1010147